| time (UTC) | temp C | wind direction | speed KPH | gust KPH | rain 1hr cm | rain 24hr cm | rain mn cm | humidity % | barometer mb |
| 20260504041518 | 3 | 325 | 0.0 | 3.2 | 0.00 | 0.00 | 0.00 | 92 | 1013.6 |
| 20260504040538 | 3 | 336 | 1.6 | 4.8 | 0.00 | 0.00 | 0.00 | 92 | 1013.6 |
| 20260504035515 | 3 | 316 | 1.6 | 3.2 | 0.00 | 0.00 | 0.00 | 91 | 1013.6 |
| 20260504034519 | 3 | 334 | 1.6 | 3.2 | 0.00 | 0.00 | 0.00 | 91 | 1013.6 |
| 20260504033519 | 3 | 315 | 1.6 | 3.2 | 0.00 | 0.00 | 0.00 | 90 | 1013.5 |
| 20260504032539 | 3 | 327 | 1.6 | 4.8 | 0.00 | 0.00 | 0.00 | 90 | 1013.6 |
| 20260504031516 | 3 | 328 | 1.6 | 3.2 | 0.00 | 0.00 | 0.00 | 89 | 1013.7 |
| 20260504030516 | 4 | 315 | 1.6 | 4.8 | 0.00 | 0.00 | 0.00 | 88 | 1013.7 |
| 20260504025516 | 4 | 316 | 1.6 | 3.2 | 0.00 | 0.00 | 0.00 | 87 | 1013.8 |
| 20260504024520 | 4 | 328 | 1.6 | 4.8 | 0.00 | 0.00 | 0.00 | 86 | 1013.9 |
| 20260504023600 | 5 | 329 | 1.6 | 3.2 | 0.00 | 0.00 | 0.00 | 85 | 1013.9 |
| 20260504022519 | 5 | 316 | 1.6 | 3.2 | 0.00 | 0.00 | 0.00 | 84 | 1013.9 |
| 20260504021537 | 5 | 339 | 1.6 | 4.8 | 0.00 | 0.00 | 0.00 | 82 | 1014.0 |
| 20260504020517 | 5 | 333 | 1.6 | 3.2 | 0.00 | 0.00 | 0.00 | 81 | 1013.9 |
| 20260504015517 | 6 | 336 | 1.6 | 3.2 | 0.00 | 0.00 | 0.00 | 79 | 1013.9 |
| 20260504014518 | 6 | 335 | 1.6 | 3.2 | 0.00 | 0.00 | 0.00 | 76 | 1013.8 |
| 20260504013517 | 7 | 336 | 1.6 | 4.8 | 0.00 | 0.00 | 0.00 | 72 | 1013.7 |
| 20260504012518 | 7 | 338 | 1.6 | 4.8 | 0.00 | 0.00 | 0.00 | 70 | 1013.7 |
| 20260504011518 | 8 | 339 | 1.6 | 4.8 | 0.00 | 0.00 | 0.00 | 68 | 1013.6 |
| 20260504010518 | 9 | 338 | 1.6 | 4.8 | 0.00 | 0.00 | 0.00 | 63 | 1013.6 |
| 20260504005516 | 10 | 353 | 1.6 | 4.8 | 0.00 | 0.00 | 0.00 | 59 | 1013.6 |
| 20260504004536 | 11 | 344 | 3.2 | 6.4 | 0.00 | 0.00 | 0.00 | 54 | 1013.6 |
| 20260504003556 | 11 | 295 | 1.6 | 6.4 | 0.00 | 0.00 | 0.00 | 50 | 1013.5 |
| 20260504002519 | 11 | 310 | 1.6 | 8.0 | 0.00 | 0.00 | 0.00 | 48 | 1013.5 |
| 20260504001519 | 12 | 316 | 1.6 | 6.4 | 0.00 | 0.00 | 0.00 | 48 | 1013.5 |
| 20260504000517 | 12 | 308 | 1.6 | 8.0 | 0.00 | 0.00 | 0.00 | 46 | 1013.4 |
| 20260503235516 | 12 | 275 | 3.2 | 8.0 | 0.00 | 0.00 | 0.00 | 46 | 1013.4 |
| 20260503234517 | 13 | 276 | 3.2 | 11.3 | 0.00 | 0.00 | 0.00 | 47 | 1013.4 |
| 20260503233517 | 13 | 211 | 3.2 | 11.3 | 0.00 | 0.00 | 0.00 | 44 | 1013.4 |
| 20260503232517 | 13 | 259 | 3.2 | 11.3 | 0.00 | 0.00 | 0.00 | 46 | 1013.5 |
| 20260503231521 | 13 | 217 | 3.2 | 12.9 | 0.00 | 0.00 | 0.00 | 44 | 1013.5 |
| 20260503230537 | 13 | 211 | 3.2 | 8.0 | 0.00 | 0.00 | 0.00 | 44 | 1013.4 |
| 20260503225517 | 13 | 286 | 3.2 | 9.7 | 0.00 | 0.00 | 0.00 | 44 | 1013.5 |
| 20260503224517 | 13 | 236 | 4.8 | 11.3 | 0.00 | 0.00 | 0.00 | 44 | 1013.5 |
| 20260503223517 | 13 | 226 | 4.8 | 12.9 | 0.00 | 0.00 | 0.00 | 44 | 1013.6 |
| 20260503222518 | 14 | 271 | 3.2 | 8.0 | 0.00 | 0.00 | 0.00 | 44 | 1013.7 |
| 20260503221518 | 14 | 222 | 3.2 | 11.3 | 0.00 | 0.00 | 0.00 | 45 | 1013.6 |
| 20260503220518 | 14 | 257 | 3.2 | 9.7 | 0.00 | 0.00 | 0.00 | 44 | 1013.7 |
| 20260503215520 | 15 | 217 | 3.2 | 11.3 | 0.00 | 0.00 | 0.00 | 41 | 1013.6 |
| 20260503214538 | 13 | 188 | 1.6 | 6.4 | 0.00 | 0.00 | 0.00 | 46 | 1013.5 |
| 20260503213616 | 14 | 280 | 4.8 | 12.9 | 0.00 | 0.00 | 0.00 | 46 | 1013.5 |
| 20260503212516 | 15 | 261 | 4.8 | 12.9 | 0.00 | 0.00 | 0.00 | 45 | 1013.3 |
| 20260503211536 | 14 | 200 | 3.2 | 9.7 | 0.00 | 0.00 | 0.00 | 44 | 1013.5 |
| 20260503210519 | 14 | 174 | 3.2 | 9.7 | 0.00 | 0.00 | 0.00 | 45 | 1013.6 |
| 20260503205519 | 15 | 251 | 4.8 | 14.5 | 0.00 | 0.00 | 0.00 | 45 | 1013.7 |
| 20260503204520 | 14 | 282 | 4.8 | 11.3 | 0.00 | 0.00 | 0.00 | 48 | 1013.7 |
| 20260503203517 | 13 | 291 | 6.4 | 14.5 | 0.00 | 0.00 | 0.00 | 45 | 1014.0 |
| 20260503202517 | 13 | 191 | 4.8 | 14.5 | 0.00 | 0.00 | 0.00 | 43 | 1013.9 |
| 20260503201517 | 15 | 187 | 6.4 | 14.5 | 0.00 | 0.00 | 0.00 | 42 | 1014.1 |
| 20260503200537 | 15 | 171 | 6.4 | 16.1 | 0.00 | 0.00 | 0.00 | 42 | 1014.0 |
| 20260503195517 | 15 | 204 | 6.4 | 14.5 | 0.00 | 0.00 | 0.00 | 43 | 1014.2 |
| 20260503194517 | 16 | 210 | 3.2 | 9.7 | 0.00 | 0.00 | 0.00 | 44 | 1014.2 |
| 20260503193518 | 15 | 178 | 4.8 | 17.7 | 0.00 | 0.00 | 0.00 | 45 | 1014.3 |
| 20260503192538 | 15 | 219 | 6.4 | 14.5 | 0.00 | 0.00 | 0.00 | 46 | 1014.5 |
| 20260503191518 | 15 | 259 | 4.8 | 11.3 | 0.00 | 0.00 | 0.00 | 49 | 1014.7 |
| 20260503190518 | 14 | 223 | 4.8 | 12.9 | 0.00 | 0.00 | 0.00 | 45 | 1014.8 |
| 20260503185518 | 14 | 176 | 6.4 | 16.1 | 0.00 | 0.00 | 0.00 | 45 | 1015.0 |
| 20260503184516 | 15 | 246 | 6.4 | 14.5 | 0.00 | 0.00 | 0.00 | 48 | 1015.1 |
| 20260503183519 | 13 | 204 | 6.4 | 14.5 | 0.00 | 0.00 | 0.00 | 48 | 1015.3 |
| 20260503182519 | 13 | 243 | 6.4 | 14.5 | 0.00 | 0.00 | 0.00 | 48 | 1015.4 |
| 20260503181539 | 15 | 182 | 4.8 | 12.9 | 0.00 | 0.00 | 0.00 | 47 | 1015.3 |
| 20260503180519 | 14 | 251 | 4.8 | 12.9 | 0.00 | 0.00 | 0.00 | 48 | 1015.4 |
| 20260503175516 | 14 | 307 | 6.4 | 16.1 | 0.00 | 0.00 | 0.00 | 50 | 1015.5 |
| 20260503174516 | 14 | 170 | 8.0 | 27.4 | 0.00 | 0.00 | 0.00 | 46 | 1015.7 |
| 20260503173517 | 13 | 262 | 6.4 | 16.1 | 0.00 | 0.00 | 0.00 | 50 | 1015.7 |
| 20260503172517 | 13 | 291 | 6.4 | 14.5 | 0.00 | 0.00 | 0.00 | 52 | 1015.8 |
| 20260503171520 | 14 | 268 | 6.4 | 19.3 | 0.00 | 0.00 | 0.00 | 49 | 1015.9 |
| 20260503170517 | 13 | 191 | 6.4 | 17.7 | 0.00 | 0.00 | 0.00 | 49 | 1015.9 |
| 20260503150516 | 11 | 271 | 4.8 | 12.9 | 0.00 | 0.33 | 0.00 | 57 | 1016.7 |
| 20260503130519 | 5 | 256 | 1.6 | 6.4 | 0.00 | 0.43 | 0.00 | 79 | 1017.6 |
| 20260503110517 | -2 | 5 | 0.0 | 1.6 | 0.00 | 0.43 | 0.00 | 99 | 1016.8 |
| 20260503081520 | 0 | 356 | 0.0 | 1.6 | 0.00 | 0.43 | 0.00 | 98 | 1016.0 |
| 20260503080520 | 0 | 328 | 0.0 | 1.6 | 0.00 | 0.43 | 0.00 | 98 | 1016.0 |
| 20260503072541 | 0 | 5 | 0.0 | 1.6 | 0.00 | 0.43 | 0.00 | 98 | 1015.9 |
| 20260503071518 | 0 | 242 | 0.0 | 3.2 | 0.00 | 0.43 | 0.00 | 99 | 1015.9 |
| 20260503070515 | 0 | 269 | 0.0 | 1.6 | 0.00 | 0.43 | 0.00 | 98 | 1015.8 |
| 20260503054540 | 0 | 319 | 0.0 | 1.6 | 0.00 | 0.43 | 0.00 | 98 | 1016.0 |
| 20260503053517 | 0 | 296 | 0.0 | 1.6 | 0.00 | 0.43 | 0.00 | 97 | 1016.0 |
| 20260503052517 | 0 | 295 | 0.0 | 1.6 | 0.00 | 0.43 | 0.00 | 97 | 1016.1 |
| 20260503051517 | -1 | 309 | 0.0 | 1.6 | 0.00 | 0.43 | 0.00 | 97 | 1016.2 |
| 20260503050517 | -1 | 288 | 0.0 | 1.6 | 0.00 | 0.43 | 0.00 | 97 | 1016.2 |
| 20260503045518 | -1 | 319 | 0.0 | 3.2 | 0.00 | 0.43 | 0.00 | 97 | 1016.3 |
| 20260503044518 | -1 | 320 | 0.0 | 1.6 | 0.00 | 0.43 | 0.00 | 97 | 1016.3 |
| 20260503043518 | -1 | 295 | 0.0 | 1.6 | 0.00 | 0.43 | 0.00 | 96 | 1016.4 |
| 20260503042518 | 0 | 300 | 0.0 | 1.6 | 0.00 | 0.43 | 0.00 | 96 | 1016.3 |